Location: Bay Ridge
(40.6340°N, 74.0146°W)
Time: 10:45:24
(UTC+00:00)

ATLAS CENTAUR R/B - Pass Details

Date: 15 November 2019
Orbit: 457 x 691 km, 64.7° (Epoch: 30 November)

Event Time Altitude Azimuth Distance (km) Brightness Sun altitude
Rises 11:06:26 0° 221° (SW) 3,047 4.9 -7.2°
Reaches altitude 10° 11:08:49 10° 225° (SW) 2,137 4.1 -6.8°
Maximum altitude 11:13:39 60° 305° (NW) 785 1.8 -5.9°
Drops below altitude 10° 11:18:25 10° 26° (NNE) 2,101 4.4 -5.1°
Sets 11:20:44 0° 30° (NNE) 2,991 5.2 -4.6°
